Voltar ao catálogo

STARLINK-32624

AtivoComunicaçõesVLEO
NORAD 61926·PAYLOAD·🇺🇸 United States

Lançado Nov 11, 2024 de Cape Canaveral Space Force Station

Loading…

Próximas Passagens (próximas 24 horas)

TLE

AtualizadoSource: CelesTrak SupGP

Época: Sep 14, 2026, 20:49 UTC

1 61926C 24207Q   26257.86784722 -.00017480  00000+0 -63321-3 0  2571
2 61926  43.0033 292.8766 0001392 281.0654 310.1677 15.27582613    16

Acompanhe STARLINK-32624 em tempo real com AllMySat

Download on the App Store